Showing default

GYEONGGISAT-1, 66771

Orbit data source: Space-Track

GYEONGGISAT-1, 66771 is a payload satellite owned by Nara Space (KR) in SSO that was launched on Fri, 28 Nov 2025 UTC via an FALCON 9 launch vehicle from the Air Force Western Test Range (AFWTR). Payload-class satellites include a variety of spacecraft equipped with specific instruments for various scientific and technological missions. These include communications satellites like Starlink; space stations such as the ISS; scientific satellites like the Hubble; Earth observation satellites from companies like Planet Labs, Umbra, and HawkEye 360; GPS; miniature CubeSats for education and research; and military/defense satellites.

Loading next visibility...
Identifier
66771, 2025-276DK
Orbit
SSO
Country
Flag of KRKR / SKOR
Related business
Manufacturer
Nara Space
Mission
Operational Commercial Imaging
Bus & Motor
CUBESAT 16U, Unknown motor
Mass
~25 kg wet, ~25 kg dry
Launch date (UTC)
2025-11-28 (9 months ago)
Launch vehicle
FALCON 9
Launch site
Air Force Western Test Range (AFWTR)
Object type
Payload
Rocket body
Debris
Shape & HBR
Box, 0.2 m
Radar Cross Section
0.240 m², Medium (>0.1 m² and < 1m²)

Expand to show TLE details & history
Last TLE update: 14 hours ago

TLE from 14 hours ago
0 GYEONGGISAT-1
1 66771U 25276DK  26238.20625296  .00005091  00000-0  22998-3 0  9990
2 66771  97.4191 311.1035 0002086  47.6804 312.4609 15.21399550 41087
Epoch: 2026-08-26T04:57Z
TLE epoch observation values (Epoch: 2026-08-26T04:57:00.255Z)
Latitude
0.00003°
Longitude
-97.61014°
Altitude
503.741 km
Speed
7.613 km/s
True Right ascension
20h 44m 24s
True Declination
0° 00' 00"
Sunlit
Object was in full shadow at epoch
Visualization orbit readout
Latitude
Unknown
Longitude
Unknown
Altitude
Unknown
Speed
Unknown
Apparent Right ascension
Unknown
Apparent Declination
Unknown
Sunlit
N/A
Visualization observer readout
Local Sidereal Time
09:54:41
Azimuth
Unknown
Elevation
Unknown
Doppler factor
Unknown
Orbital elements
Apogee altitude
500.017 km
Perigee altitude
497.148 km
Semi-major axis
6,876.72 km
Eccentricity
0.00021
Inclination
97.4191°
RAAN
311.1035°
Arg. of periapsis
47.6804°
True anomaly
312.44326°
Mean anomaly
312.4609°
Eccentric anomaly
312.45208°
Mean motion
3.80602 °/min
Orbital period
94.59 mins
BSTAR
0.00022998
Loading maneuver chart data...
Computing Atmospheric mass density...
Loading historical data...
Loading historical data...
Loading historical data...
Loading historical data...
Loading historical data...
Loading historical data...
Loading historical data...

Documentation

Showing up to 5 results
|